Wind_Speed
28 29 31 30 29 26 27 24 17 14 14 8 5 11 17 28 29 6 10 12 3 8 10 7 5 6 6 5 4 6 4 2 3 3 2 2 2 2 2 2 3 4 4 2 2 1 5 3 2 4 2 5 7 6
28 28 28 28 28 24 23 17 13 12 8 1 9 11 11 25 25 11 8 11 10 8 11 17 17 13 10 7 10 7 3 3 3 4 1 2 1 1 3 2 1 2 4 3 6 4 2 2 1 4 4 7 6 5
26 27 27 27 24 24 20 13 10 7 3 9 10 11 15 24 23 11 4 6 13 19 12 7 11 12 8 8 9 4 3 4 4 4 5 2 2 2 3 4 2 2 3 2 1 2 3 4 6 7 6 4 4 4
24 24 25 25 23 22 14 11 9 6 0 10 12 12 15 19 24 19 7 3 4 7 5 6 6 8 8 5 4 4 7 8 9 5 4 2 2 2 2 1 2 3 4 3 3 4 4 10 11 9 6 4 4 4
20 22 22 22 20 15 11 12 8 7 4 13 10 10 18 19 17 16 12 4 4 1 6 5 9 9 9 7 7 9 10 10 6 3 3 1 2 2 1 1 3 6 5 4 4 5 3 4 15 12 8 6 5 6
19 20 20 18 15 11 13 10 12 17 15 19 6 16 20 21 21 20 3 4 2 6 6 3 3 4 7 9 8 8 8 6 5 4 3 3 3 1 2 3 3 7 7 7 3 4 8 4 9 11 7 6 6 9
18 18 17 13 8 10 6 4 10 23 23 19 15 20 20 22 23 8 2 8 8 3 3 4 3 3 5 5 5 6 5 4 3 4 2 3 3 3 2 4 5 10 8 6 7 8 5 7 4 9 6 7 9 10
16 14 12 7 5 3 7 8 15 19 23 23 22 20 18 23 19 1 2 15 10 1 3 3 1 1 4 2 3 3 2 3 4 3 2 2 3 1 3 7 7 10 8 7 10 8 6 5 7 7 8 9 10 13
15 12 7 5 5 5 7 13 15 24 21 23 20 24 24 17 3 3 13 10 4 1 6 3 4 3 6 3 3 2 2 3 1 2 0 1 1 4 5 9 14 17 11 7 9 6 4 5 5 6 8 11 15 18
13 11 8 10 8 10 13 19 8 18 23 23 27 8 6 9 5 12 4 4 3 2 2 3 6 2 5 3 2 2 3 1 1 1 1 2 3 10 7 7 9 15 11 7 9 7 8 8 7 9 12 16 19 21
13 12 11 14 12 12 21 19 15 25 31 23 5 4 15 15 13 2 2 2 1 2 3 5 4 5 6 3 2 1 2 0 2 3 2 2 3 4 8 9 10 14 11 8 8 5 5 7 10 14 18 19 20 21
14 13 15 19 16 17 24 20 22 30 17 6 8 19 16 6 2 3 2 2 2 4 7 8 8 5 6 4 4 2 3 2 2 2 1 3 4 4 7 9 13 13 11 10 8 7 8 11 15 18 21 21 20 20
17 17 20 23 21 23 27 25 22 21 17 20 6 6 5 2 4 5 6 4 3 9 12 11 3 7 6 4 5 3 4 1 2 1 3 4 3 6 11 11 12 11 10 9 9 9 12 16 18 19 19 17 20 23
19 22 25 28 27 27 28 30 23 25 14 4 7 2 5 2 5 5 4 3 5 9 25 21 8 4 5 3 3 5 2 3 2 1 5 3 8 8 14 13 12 11 11 10 10 12 16 17 17 15 17 20 22 24
21 25 28 31 29 31 30 33 31 27 4 5 5 5 6 5 2 4 7 9 7 28 31 11 6 4 2 4 1 4 3 2 5 5 3 2 3 10 13 14 12 11 11 11 12 16 17 15 16 17 20 24 25 27
23 24 33 33 32 35 33 36 36 24 5 5 6 2 2 1 3 5 10 8 24 34 12 4 3 4 2 4 3 5 7 6 4 4 4 2 3 7 12 11 10 10 11 12 16 16 16 15 18 22 27 29 30 29
28 35 36 36 35 37 39 39 21 10 7 5 4 7 11 5 5 8 12 17 35 15 3 4 4 4 4 3 1 3 5 3 3 6 4 3 3 5 7 7 7 8 12 15 14 14 15 18 24 29 34 35 32 30
40 38 32 32 41 53 49 18 14 9 7 6 4 6 9 5 7 11 12 35 19 6 6 4 10 3 5 5 3 4 9 5 5 6 6 5 6 6 5 3 7 10 10 11 13 16 20 25 29 32 33 31 30 28
39 34 38 61 65 42 9 13 7 7 4 5 6 8 5 5 9 14 22 28 9 7 10 5 5 3 3 6 5 11 13 11 8 8 7 7 6 4 3 5 6 6 9 13 16 20 24 27 26 25 25 25 26 27
40 34 57 59 52 15 8 6 10 5 7 8 9 10 7 7 14 20 23 12 13 5 3 2 3 6 8 14 14 12 12 10 8 9 8 8 5 2 2 2 5 8 11 15 21 23 22 22 21 22 23 24 26 29
41 47 58 56 28 12 7 7 7 5 9 6 15 11 5 13 13 12 8 10 5 3 2 4 12 17 18 17 14 10 9 8 7 4 6 7 4 3 1 3 8 12 18 20 19 20 21 22 23 23 26 27 28 30
37 58 44 31 11 7 5 8 6 11 5 10 11 7 6 5 6 7 7 4 4 4 7 15 23 22 19 16 12 10 9 8 7 5 4 5 6 4 3 9 13 18 16 18 20 21 22 22 24 27 29 29 27 27
54 40 30 6 6 5 5 17 3 8 4 6 8 5 1 4 8 11 5 4 5 8 16 23 23 20 16 14 12 10 9 8 5 4 5 5 4 4 9 13 15 15 17 18 20 21 22 24 26 26 26 27 28 28
44 11 7 7 5 5 9 5 5 6 7 3 3 3 2 5 10 2 3 4 8 17 21 25 24 21 17 14 12 10 9 7 6 6 5 4 6 10 13 11 14 16 18 20 18 21 23 23 26 27 27 27 26 26
10 7 9 4 6 6 4 5 3 1 3 3 4 1 3 6 2 2 4 5 17 23 25 26 24 19 17 15 12 10 9 8 8 6 5 7 11 9 10 13 15 18 18 18 20 21 23 24 24 25 26 26 26 26
5 4 4 4 5 5 7 6 7 6 4 4 3 6 5 3 3 5 4 16 25 29 32 31 29 24 18 13 13 12 11 9 6 5 8 7 7 11 13 14 16 17 19 20 21 22 23 24 24 25 24 24 24 25
5 5 5 4 12 12 6 5 5 3 5 6 5 5 3 4 5 4 10 19 21 27 27 26 22 17 16 17 15 14 11 7 4 5 5 7 10 11 14 14 15 17 17 18 19 21 22 23 24 23 24 24 23 24
4 9 8 10 7 4 6 4 4 4 4 8 9 5 9 9 5 8 10 19 17 22 27 27 22 19 17 16 14 12 7 4 4 4 7 9 11 12 12 14 15 15 16 17 18 19 20 21 21 22 22 22 22 22
4 13 12 4 6 6 3 3 4 5 9 14 4 3 4 4 10 12 21 21 20 27 28 28 26 23 20 17 13 7 5 5 4 6 8 9 11 11 13 13 13 13 13 14 16 17 17 18 19 20 21 21 21 20
4 6 6 4 4 3 1 4 6 13 12 9 8 7 6 7 11 19 21 25 28 28 25 24 23 20 18 15 10 10 7 5 5 6 9 10 11 12 12 11 11 11 12 12 12 12 13 13 14 15 16 18 19 19
8 5 7 6 4 2 8 14 14 15 11 7 7 5 8 7 11 20 24 26 27 27 27 25 22 19 14 14 12 9 7 5 4 7 9 9 11 11 9 9 9 10 10 11 11 12 13 14 15 16 17 18 18 19
4 4 4 5 3 10 11 5 4 3 3 4 4 4 6 5 8 18 26 30 30 28 24 20 17 16 17 14 10 8 5 3 5 8 9 10 10 9 8 8 8 9 9 10 11 12 12 13 14 15 16 16 16 17
7 10 10 8 5 4 4 6 3 3 4 3 2 6 6 8 6 15 25 30 27 25 22 16 18 17 14 12 10 6 3 3 7 8 9 8 7 6 7 7 8 9 9 10 10 11 12 13 14 14 15 15 15 15
Wind_Direction
319 320 319 323 325 325 332 327 323 326 332 340 113 164 161 168 174 139 39 20 103 99 62 81 95 105 116 113 125 154 97 13 55 69 113 175 135 228 86 181 185 171 135 189 96 115 292 11 115 165 206 123 153 156
314 321 322 325 323 328 329 325 320 340 342 102 161 166 168 177 173 163 59 30 79 98 110 92 87 89 99 109 127 139 121 123 138 92 75 108 128 84 156 237 30 216 179 188 178 213 226 241 184 161 160 168 180 214
316 318 322 325 323 329 325 315 317 324 38 118 150 166 171 186 186 169 105 29 85 103 83 91 71 81 90 120 142 130 139 143 128 110 143 145 114 133 171 241 190 225 176 176 71 201 223 194 168 175 180 191 199 225
315 318 321 326 322 324 316 303 304 294 8 134 138 157 172 179 196 201 196 279 110 103 99 52 83 76 70 104 140 150 152 141 129 103 83 99 118 174 217 246 204 200 146 159 268 255 258 232 212 203 198 203 213 247
316 316 320 320 318 317 302 292 269 222 175 161 157 169 165 159 166 182 194 187 102 61 126 117 92 66 68 90 110 124 139 136 119 81 62 117 124 114 16 25 254 194 183 169 224 212 182 212 213 208 210 226 248 271
312 315 316 315 317 305 299 287 249 202 191 178 201 175 161 159 159 165 154 216 110 106 106 111 117 78 96 94 111 121 127 107 99 101 122 140 142 137 134 225 237 209 219 227 247 225 212 232 182 202 220 251 262 270
308 311 316 312 311 309 354 16 177 176 182 180 175 162 163 166 162 150 194 171 161 128 106 94 17 129 134 120 96 83 86 90 88 106 100 149 164 171 174 221 202 198 200 212 201 168 175 193 223 219 236 260 271 284
299 304 302 295 282 197 35 114 149 162 164 157 158 157 159 159 160 188 300 163 160 149 103 107 35 117 155 96 86 84 86 89 58 103 126 168 165 167 252 230 197 181 172 176 185 211 250 235 216 216 249 269 282 289
295 294 278 230 246 156 123 172 165 159 158 159 152 146 143 149 143 355 150 148 132 153 123 107 138 200 156 106 100 93 75 56 66 96 147 145 210 232 236 197 197 190 185 198 198 215 211 207 217 244 269 286 293 296
277 275 243 196 211 174 158 171 161 168 159 148 140 129 124 158 120 123 122 179 221 231 106 98 126 144 155 135 88 107 44 101 97 324 339 226 260 260 234 224 220 197 193 200 191 209 217 231 255 274 289 293 295 297
261 260 225 192 199 182 175 178 162 151 145 145 133 92 144 150 158 197 181 163 207 2 154 127 142 139 168 124 146 135 172 324 81 264 126 286 273 247 209 210 201 199 209 211 220 234 235 267 286 292 293 296 296 302
249 242 215 195 197 187 181 178 168 159 155 136 128 123 129 177 161 93 246 330 199 218 161 145 157 142 140 130 106 133 115 45 203 180 62 270 255 239 185 196 191 196 207 211 221 242 271 290 296 297 298 299 302 302
244 228 206 196 193 190 180 178 179 172 148 133 127 151 161 152 47 158 207 266 238 174 172 156 141 149 127 122 88 96 79 161 152 190 238 234 265 205 184 181 186 198 209 218 238 266 291 301 301 299 300 307 308 309
238 214 204 197 195 193 184 185 186 175 160 186 160 182 174 225 240 196 191 178 154 167 156 147 125 142 126 86 140 91 112 86 115 266 238 248 228 198 193 199 209 215 222 235 259 288 302 304 301 300 307 315 319 321
227 210 201 197 198 196 189 187 182 191 233 226 187 217 207 217 177 199 163 143 145 155 148 124 105 127 91 102 120 116 125 235 210 230 233 250 191 195 198 207 217 227 237 256 284 300 304 302 305 311 318 321 321 317
216 209 204 198 198 191 186 188 184 195 263 229 216 118 188 191 196 195 186 158 154 156 161 156 127 84 97 131 111 198 130 214 239 218 217 195 193 198 205 215 229 240 258 283 299 301 303 310 314 316 317 317 317 312
206 206 204 203 207 196 196 189 176 198 240 220 220 219 202 273 211 182 176 167 159 164 200 156 89 174 103 65 152 193 199 216 186 174 153 165 159 177 193 212 237 266 289 300 302 303 306 311 311 310 311 314 313 311
205 207 207 199 180 171 171 175 179 222 216 200 170 183 194 227 194 170 161 165 160 209 192 190 130 117 157 152 242 225 211 160 139 151 151 151 154 163 185 239 284 297 302 306 307 305 307 310 311 313 314 317 317 321
200 196 180 170 170 154 138 171 194 204 199 158 161 162 161 169 173 167 162 168 193 203 164 158 93 152 205 204 169 152 165 169 170 166 166 169 170 189 277 301 307 307 310 309 310 312 314 315 318 320 322 324 323 325
193 189 176 174 163 148 143 167 190 209 177 165 153 149 141 155 153 153 163 176 162 181 196 127 181 177 144 140 140 142 152 161 162 157 171 181 198 255 290 323 319 315 313 313 315 319 323 326 326 326 327 328 326 325
176 177 170 171 157 148 136 172 171 172 150 146 140 127 118 144 150 162 168 171 207 227 198 164 140 133 135 135 138 142 148 156 162 160 160 173 180 171 167 319 315 318 323 325 327 329 328 328 328 329 327 328 326 325
168 166 154 159 153 120 146 187 170 135 144 143 129 118 134 153 155 163 169 203 232 187 167 156 150 146 147 148 148 151 154 159 159 158 160 169 168 178 284 310 319 324 329 328 327 328 327 327 327 328 326 326 328 329
155 158 157 137 106 112 140 144 146 163 146 163 118 107 159 184 178 158 191 225 207 190 171 163 156 155 156 158 161 160 160 166 172 178 178 177 204 284 309 316 320 325 327 326 326 326 328 328 326 328 330 329 330 331
153 134 146 132 126 126 153 179 177 137 119 126 114 120 243 163 152 160 224 220 194 176 176 171 168 166 166 170 173 170 173 176 179 181 185 221 275 299 311 319 325 327 328 326 328 329 328 330 332 333 334 335 337 335
130 164 145 126 140 117 136 150 183 174 123 137 111 172 227 164 104 182 216 206 178 179 179 178 179 185 181 176 174 170 170 167 169 190 224 269 291 304 312 321 325 326 329 329 331 333 334 334 336 337 339 339 342 339
107 173 172 151 155 149 168 147 185 165 121 123 144 144 164 137 144 212 216 184 182 186 188 187 184 182 180 178 170 169 168 167 180 226 279 285 302 310 316 322 322 327 331 330 332 336 339 340 341 341 344 345 344 339
135 189 165 131 130 128 101 93 133 128 129 158 162 172 162 148 212 240 172 165 180 192 197 194 191 191 178 168 166 168 169 179 251 270 284 303 311 317 322 322 321 327 331 333 340 342 342 343 345 348 347 347 348 342
123 159 139 142 109 105 120 109 142 159 156 154 145 170 175 175 185 169 167 170 178 179 176 176 171 164 161 160 165 168 176 226 228 275 299 310 316 317 318 325 329 333 336 340 344 346 346 346 349 351 349 347 348 346
110 134 121 87 93 70 75 141 167 147 149 168 130 146 176 139 156 159 158 160 166 173 171 166 163 164 167 168 170 182 188 207 258 290 302 310 314 318 327 331 331 336 342 344 345 348 350 351 351 353 353 351 352 352
120 148 105 70 84 110 137 152 147 142 140 131 115 114 113 138 156 153 160 165 163 167 168 166 166 170 171 173 177 176 196 234 267 293 305 316 320 326 331 330 334 339 339 342 345 348 350 354 358 357 357 358 359 0
128 99 79 66 89 113 131 131 133 127 126 118 128 142 128 121 148 158 161 161 163 166 164 163 165 170 179 173 171 184 202 226 271 306 315 320 327 331 331 335 340 337 337 339 343 348 351 354 355 357 0 4 5 5
81 95 130 113 106 135 120 109 96 86 87 90 88 128 122 120 156 173 176 172 170 173 174 174 176 174 166 170 178 192 209 245 315 324 328 328 330 332 337 338 336 337 339 340 342 344 349 351 351 353 357 359 1 3
96 90 93 100 117 159 144 113 81 84 75 104 146 167 172 158 153 183 185 181 182 178 176 177 168 169 169 174 183 194 216 318 336 334 331 327 325 333 343 340 337 336 337 337 337 338 338 339 340 341 343 343 345 347
Height
1443 1440 1435 1431 1428 1424 1420 1416 1414 1414 1411 1409 1408 1411 1414 1418 1423 1427 1429 1428 1427 1429 1439 1440 1440 1442 1445 1447 1454 1459 1462 1463 1465 1470 1473 1477 1479 1480 1480 1479 1479 1480 1489 1489 1492 1491 1492 1477 1478 1481 1481 1479 1479 1481
1440 1436 1433 1428 1424 1422 1419 1415 1412 1411 1409 1408 1409 1413 1416 1421 1426 1430 1432 1432 1430 1431 1443 1444 1444 1446 1447 1450 1453 1457 1461 1460 1463 1470 1475 1478 1478 1483 1483 1481 1479 1481 1480 1481 1483 1482 1478 1477 1478 1477 1477 1478 1480 1480
1436 1431 1428 1426 1421 1419 1416 1413 1413 1413 1413 1410 1412 1415 1419 1424 1428 1431 1434 1436 1435 1438 1446 1448 1449 1451 1451 1452 1454 1457 1460 1461 1462 1464 1468 1474 1474 1479 1481 1480 1477 1475 1475 1478 1478 1478 1477 1476 1477 1477 1478 1479 1479 1478
1432 1429 1424 1421 1418 1416 1414 1412 1411 1411 1412 1413 1415 1418 1421 1425 1430 1434 1437 1439 1440 1441 1446 1456 1453 1454 1454 1455 1456 1457 1458 1461 1463 1465 1468 1473 1475 1477 1480 1479 1478 1475 1475 1478 1478 1475 1475 1475 1474 1475 1475 1475 1476 1475
1429 1426 1422 1419 1416 1414 1412 1411 1411 1412 1413 1416 1418 1421 1424 1428 1433 1437 1440 1442 1442 1444 1449 1455 1456 1458 1457 1458 1458 1459 1461 1462 1464 1467 1471 1476 1476 1478 1479 1479 1478 1471 1471 1474 1473 1467 1468 1468 1468 1472 1473 1473 1474 1474
1424 1422 1420 1418 1415 1413 1411 1409 1407 1410 1414 1416 1419 1422 1426 1430 1435 1438 1444 1444 1443 1443 1446 1456 1460 1460 1460 1461 1461 1462 1463 1464 1466 1468 1473 1474 1475 1477 1480 1480 1467 1466 1466 1467 1466 1466 1467 1467 1467 1469 1471 1472 1472 1470
1422 1419 1416 1415 1413 1412 1408 1404 1401 1408 1414 1418 1421 1425 1428 1432 1437 1440 1443 1443 1444 1445 1446 1458 1461 1461 1462 1462 1463 1465 1465 1466 1467 1470 1473 1473 1474 1474 1476 1474 1460 1461 1462 1464 1464 1465 1467 1467 1467 1468 1469 1469 1468 1468
1416 1416 1414 1413 1413 1412 1411 1410 1410 1412 1417 1421 1423 1427 1431 1435 1440 1442 1442 1443 1445 1446 1447 1458 1463 1463 1463 1464 1465 1466 1467 1468 1470 1472 1473 1473 1474 1473 1472 1458 1459 1461 1462 1463 1464 1464 1464 1465 1466 1467 1468 1468 1467 1465
1413 1411 1410 1410 1412 1412 1413 1414 1414 1416 1420 1423 1427 1430 1435 1440 1443 1443 1443 1445 1446 1449 1447 1453 1460 1466 1463 1464 1465 1467 1467 1471 1473 1472 1473 1475 1473 1472 1455 1455 1456 1458 1461 1462 1463 1464 1465 1466 1467 1467 1467 1466 1464 1461
1406 1406 1407 1409 1412 1413 1415 1417 1418 1419 1423 1426 1431 1434 1439 1442 1444 1446 1449 1448 1448 1446 1446 1451 1455 1460 1462 1464 1467 1469 1469 1473 1480 1475 1474 1473 1464 1453 1453 1454 1455 1457 1459 1460 1462 1464 1464 1465 1466 1466 1465 1462 1459 1456
1404 1404 1404 1406 1409 1413 1415 1418 1420 1423 1425 1428 1430 1433 1437 1442 1445 1446 1446 1447 1447 1448 1446 1449 1452 1456 1461 1463 1465 1467 1473 1474 1482 1479 1476 1475 1464 1451 1450 1453 1455 1457 1459 1460 1461 1462 1464 1465 1464 1462 1460 1458 1456 1454
1398 1400 1403 1406 1407 1411 1414 1418 1422 1424 1425 1427 1429 1434 1440 1443 1445 1447 1452 1448 1447 1443 1444 1446 1449 1453 1457 1459 1462 1468 1473 1475 1481 1473 1476 1476 1454 1449 1449 1451 1454 1457 1459 1460 1462 1462 1462 1462 1461 1459 1457 1455 1453 1450
1393 1395 1397 1403 1406 1410 1413 1418 1422 1427 1426 1429 1431 1435 1437 1442 1448 1452 1451 1448 1446 1436 1438 1441 1448 1450 1455 1458 1462 1466 1475 1479 1473 1474 1477 1461 1448 1448 1449 1452 1454 1456 1458 1460 1460 1460 1460 1459 1458 1456 1454 1452 1450 1447
1388 1388 1394 1400 1405 1409 1411 1417 1422 1427 1428 1428 1428 1434 1434 1441 1434 1426 1424 1422 1423 1424 1429 1436 1443 1446 1450 1456 1461 1470 1471 1472 1480 1481 1470 1450 1445 1446 1448 1451 1454 1456 1457 1458 1458 1458 1457 1456 1454 1452 1451 1448 1445 1441
1380 1384 1387 1392 1400 1406 1411 1416 1421 1426 1427 1425 1424 1426 1426 1417 1417 1417 1418 1420 1422 1425 1428 1435 1440 1443 1449 1456 1459 1464 1471 1479 1476 1464 1451 1443 1444 1445 1447 1450 1453 1455 1456 1456 1457 1456 1454 1452 1450 1449 1448 1445 1440 1436
1376 1382 1382 1386 1394 1403 1411 1417 1421 1426 1424 1419 1416 1417 1416 1417 1415 1416 1416 1418 1421 1426 1429 1432 1437 1443 1449 1450 1459 1466 1468 1466 1453 1446 1442 1443 1443 1445 1447 1450 1453 1454 1455 1455 1454 1452 1450 1449 1447 1444 1441 1438 1435 1430
1368 1367 1375 1380 1388 1401 1412 1414 1419 1423 1417 1410 1408 1408 1410 1410 1409 1411 1414 1416 1421 1427 1428 1428 1435 1443 1448 1456 1455 1453 1453 1442 1437 1439 1441 1443 1444 1446 1448 1450 1452 1453 1453 1452 1451 1450 1448 1446 1443 1439 1434 1430 1426 1422
1355 1360 1369 1374 1378 1393 1402 1409 1415 1413 1406 1403 1404 1405 1407 1409 1409 1409 1409 1415 1420 1423 1423 1423 1424 1440 1444 1447 1449 1436 1435 1437 1439 1441 1442 1443 1444 1446 1448 1449 1450 1451 1450 1450 1448 1447 1444 1441 1437 1432 1427 1423 1419 1416
1351 1358 1364 1361 1366 1384 1396 1403 1408 1403 1400 1399 1401 1404 1405 1407 1408 1408 1411 1417 1418 1419 1419 1418 1424 1433 1431 1426 1425 1428 1432 1435 1437 1439 1441 1443 1445 1446 1447 1447 1448 1448 1448 1446 1445 1442 1439 1436 1432 1427 1423 1419 1415 1411
1352 1360 1360 1363 1371 1380 1391 1397 1401 1399 1396 1396 1400 1403 1405 1407 1409 1409 1414 1416 1416 1417 1416 1417 1416 1415 1417 1420 1424 1428 1430 1433 1435 1437 1440 1442 1444 1445 1445 1445 1446 1446 1445 1443 1441 1437 1433 1431 1428 1423 1420 1416 1411 1406
1347 1357 1360 1362 1369 1376 1383 1390 1392 1393 1393 1395 1397 1400 1404 1408 1409 1411 1412 1414 1415 1413 1412 1411 1412 1415 1418 1422 1425 1428 1430 1432 1435 1437 1438 1440 1442 1443 1443 1443 1443 1442 1441 1438 1435 1433 1430 1426 1422 1419 1415 1410 1406 1402
1335 1347 1350 1359 1365 1372 1381 1385 1386 1388 1392 1392 1394 1398 1404 1407 1409 1410 1411 1411 1409 1407 1407 1409 1412 1415 1418 1422 1425 1428 1430 1432 1434 1435 1438 1440 1441 1442 1441 1441 1439 1438 1436 1433 1430 1427 1424 1421 1418 1414 1410 1405 1400 1396
1329 1343 1351 1356 1362 1370 1380 1382 1385 1388 1390 1392 1393 1399 1404 1404 1405 1408 1408 1405 1404 1404 1406 1409 1412 1415 1418 1422 1425 1427 1429 1431 1432 1435 1437 1439 1440 1439 1438 1437 1435 1434 1432 1430 1426 1423 1421 1418 1413 1409 1404 1400 1395 1391
1334 1341 1345 1351 1358 1368 1375 1379 1382 1383 1384 1388 1393 1402 1403 1401 1403 1404 1405 1399 1398 1400 1403 1406 1410 1413 1417 1421 1423 1425 1427 1429 1432 1435 1436 1437 1438 1437 1436 1434 1432 1429 1427 1425 1423 1420 1417 1413 1409 1404 1400 1395 1391 1387
1330 1339 1341 1349 1352 1360 1369 1375 1377 1377 1379 1384 1391 1398 1397 1397 1402 1405 1399 1391 1392 1396 1400 1404 1408 1412 1415 1417 1420 1423 1426 1429 1431 1433 1435 1435 1435 1434 1433 1431 1428 1426 1423 1421 1419 1416 1412 1408 1405 1401 1396 1392 1387 1384
1326 1331 1335 1336 1346 1347 1356 1363 1368 1369 1373 1382 1387 1390 1392 1393 1396 1393 1385 1381 1385 1390 1394 1398 1402 1408 1412 1415 1418 1422 1425 1428 1430 1431 1432 1432 1431 1431 1429 1427 1425 1423 1419 1417 1414 1411 1408 1404 1401 1397 1393 1390 1386 1382
1324 1329 1330 1331 1333 1338 1349 1355 1358 1359 1364 1372 1380 1387 1386 1388 1387 1375 1374 1377 1382 1387 1392 1398 1403 1407 1409 1412 1417 1421 1424 1426 1428 1429 1429 1428 1428 1426 1425 1424 1421 1419 1416 1414 1411 1407 1404 1400 1397 1394 1391 1388 1385 1381
1314 1319 1323 1328 1331 1336 1343 1350 1354 1355 1358 1360 1366 1372 1368 1367 1371 1370 1371 1376 1380 1385 1390 1396 1402 1406 1409 1412 1416 1419 1421 1423 1425 1425 1426 1425 1424 1423 1421 1419 1417 1414 1412 1409 1407 1404 1401 1398 1394 1391 1389 1386 1383 1380
1314 1316 1319 1328 1331 1337 1343 1346 1348 1349 1352 1354 1356 1362 1365 1365 1366 1367 1370 1374 1379 1384 1388 1393 1399 1404 1407 1410 1414 1416 1418 1421 1422 1422 1422 1422 1421 1419 1416 1414 1412 1411 1409 1407 1404 1402 1400 1397 1394 1391 1388 1385 1382 1379
1313 1315 1319 1327 1330 1341 1344 1344 1345 1346 1348 1351 1354 1359 1362 1365 1366 1368 1371 1374 1377 1383 1388 1393 1397 1401 1404 1408 1410 1413 1416 1418 1419 1419 1419 1418 1416 1414 1412 1411 1410 1408 1407 1406 1404 1402 1400 1398 1395 1393 1390 1386 1383 1379
1313 1314 1321 1331 1339 1342 1342 1343 1345 1346 1349 1353 1355 1359 1360 1363 1367 1370 1373 1377 1382 1386 1388 1392 1397 1400 1402 1405 1408 1411 1414 1415 1416 1416 1415 1414 1412 1410 1409 1408 1407 1406 1405 1403 1402 1400 1398 1396 1394 1391 1388 1386 1383 1380
1315 1317 1321 1332 1341 1343 1343 1345 1347 1350 1351 1352 1355 1358 1361 1364 1368 1371 1374 1376 1380 1385 1389 1392 1395 1397 1401 1404 1407 1409 1411 1412 1412 1412 1410 1409 1408 1407 1406 1405 1404 1403 1403 1401 1400 1399 1396 1395 1393 1391 1388 1386 1383 1381
1318 1319 1321 1331 1340 1343 1345 1347 1350 1353 1354 1357 1359 1359 1361 1362 1365 1371 1372 1375 1381 1384 1388 1391 1393 1396 1400 1403 1405 1406 1407 1408 1408 1407 1407 1406 1405 1404 1403 1403 1402 1401 1400 1400 1399 1397 1396 1394 1392 1389 1387 1385 1383 1381